This demonstration page uses our WeatherBlox Daily Observations layout. Learn more.

38.88101, -77.10428

Hourly Observations for March 24, 2017

Temp ( °F °C ) Dew Point ( °F °C ) Humidity (%) Winds ( mph kmh ) Pressure ( in mb ) Visibility ( mi km ) Precip ( " mm )
12:52 am 00:52 Clear 38 3.3 22 -5.6 52 52 S 9 15 30.5 1033 10 16.09344 0 0
1:52 am 01:52 Clear 38 3.3 22 -5.6 52 52 S 15 24 30.5 1033 10 16.09344 0 0
2:52 am 02:52 Clear 37 2.8 23 -5 57 57 S 9 15 30.5 1033 10 16.09344 0 0
3:52 am 03:52 Clear 37 2.8 25 -3.9 62 62 S 13 20 30.48 1032 10 16.09344 0 0
4:52 am 04:52 Clear 36 2.2 25 -3.9 64 64 S 13 20 30.48 1032 10 16.09344 0 0
5:52 am 05:52 Mostly Clear 37 2.8 26 -3.3 65 65 S 14 22 30.48 1032 10 16.09344 0 0
6:52 am 06:52 Mostly Cloudy 38 3.3 26 -3.3 62 62 S 18 30 30.45 1031 10 16.09344 0 0
7:52 am 07:52 Mostly Cloudy 38 3.3 25 -3.9 60 60 S 12 19 30.48 1032 10 16.09344 0 0
8:52 am 08:52 Mostly Cloudy 39 3.9 28 -2.2 65 65 S 14 22 30.48 1032 10 16.09344 0 0
9:52 am 09:52 Mostly Cloudy 41 5 29 -1.7 62 62 S 14 22 30.45 1031 10 16.09344 0 0
10:52 am 10:52 Cloudy with Light Rain 41 5 34 1.1 76 76 SSW 12 19 30.45 1031 9 14.484096 0.03 0.762
11:04 am 11:04 Cloudy with Light Rain 39 4 36 2 87 87 S 13 20 30.45 1031 6 9.656064 0 0
11:48 am 11:48 Cloudy with Rain 43 6 36 2 76 76 SSW 7 11 30.42 1030 4 6.437376 0 0
11:52 am 11:52 Cloudy with Light Rain 42 5.6 36 2.2 79 79 S 6 9 30.39 1029 4 6.437376 0.1 2.54
12:52 pm 12:52 Cloudy 49 9.4 40 4.4 71 71 SSW 14 22 30.36 1028 10 16.09344 0.001 0.001
1:52 pm 13:52 Mostly Cloudy 53 11.7 36 2.2 52 52 SW 17 28 30.3 1026 10 16.09344 0 0
2:52 pm 14:52 Cloudy 55 12.8 35 1.7 47 47 S 15 24 30.27 1025 10 16.09344 0 0
3:52 pm 15:52 Mostly Cloudy 58 14.4 35 1.7 42 42 S 17 28 30.24 1024 10 16.09344 0 0
4:52 pm 16:52 Cloudy 61 16.1 36 2.2 39 39 SSW 21 33 30.21 1023 10 16.09344 0 0
5:52 pm 17:52 Cloudy 62 16.7 37 2.8 40 40 SSW 20 31 30.18 1022 10 16.09344 0 0
6:52 pm 18:52 Mostly Cloudy 61 16.1 39 3.9 44 44 SSW 10 17 30.15 1021 10 16.09344 0 0
7:52 pm 19:52 Mostly Cloudy 58 14.4 41 5 53 53 SSW 9 15 30.15 1021 10 16.09344 0 0
8:52 pm 20:52 Mostly Cloudy 55 12.8 44 6.7 67 67 S 10 17 30.15 1021 10 16.09344 0 0
9:52 pm 21:52 Mostly Clear 56 13.3 46 7.8 70 70 S 12 19 30.15 1021 10 16.09344 0 0
10:52 pm 22:52 Clear 57 13.9 47 8.3 69 69 S 10 17 30.18 1022 10 16.09344 0 0
11:52 pm 23:52 Clear 57 13.9 48 8.9 72 72 S 10 17 30.18 1022 10 16.09344 0 0

Powered by AerisWeather